White Plains, CT

4:45 PM EDT on September 23, 2019 (GMT -0400)
Westchester County

Weather History for KHPN - July, 2019

Change the Weather History Date:

Friday, July 26, 2019

  Actual Average Record
Temperature  
Mean Temperature 74 °F -  
Max Temperature 86 °F 80 °F 93 °F (2005)
Min Temperature 64 °F 62 °F 54 °F (1976)
Cooling Degree Days 9    
Growing Degree Days 24 (Base 50)    
Moisture  
Dew Point 59 °F    
Average Humidity 61    
Maximum Humidity 84    
Minimum Humidity 32    
Precipitation  
Precipitation 0.00 in - - ()
Sea Level Pressure  
Sea Level Pressure 30.23 in    
Wind  
Wind Speed 3 mph (WNW)    
Max Wind Speed 6 mph    
Max Gust Speed -    
Visibility 10 miles    
Events      
Averages and records for this station are not official NWS values.
T = Trace of Precipitation, MM = Missing Value Source: NWS Daily Summary

Daily Weather History Graph

Daily Weather History Graph

Search for Another Location

Airport or City:

Astronomy

Jul. 26, 2019 Rise Set
Actual Time 5:44 AM EDT 8:17 PM EDT
Civil Twilight 5:13 AM EDT 8:48 PM EDT
Nautical Twilight 4:33 AM EDT 9:28 PM EDT
Astronomical Twilight 3:49 AM EDT 10:12 PM EDT
Moon 12:57 AM EDT (7/26) 2:59 PM EDT (7/26)
Length of Visible Light 15h 35m
Length of Day
14h 32m
Waning Crescent, 34% of the Moon is Illuminated
Jul 26
Waning Crescent
Jul 31
New
Aug 7
First Quarter
Aug 15
Full
Aug 23
Last Quarter

Hourly Weather History & Observations

Time (EDT) Temp. Heat Index Dew Point Humidity Pressure Visibility Wind Dir Wind Speed Gust Speed Precip Events Conditions
12:56 AM 68.0 °F - 62.1 °F 81% 30.17 in 10.0 mi Calm Calm - N/A   Clear
1:56 AM 66.0 °F - 61.0 °F 84% 30.17 in 10.0 mi WNW 3.5 mph - N/A   Clear
2:56 AM 66.0 °F - 61.0 °F 84% 30.19 in 10.0 mi WNW 4.6 mph - N/A   Clear
3:56 AM 64.9 °F - 60.1 °F 84% 30.19 in 10.0 mi WNW 5.8 mph - N/A   Clear
4:56 AM 66.0 °F - 59.0 °F 78% 30.20 in 10.0 mi WNW 5.8 mph - N/A   Clear
5:56 AM 64.9 °F - 59.0 °F 81% 30.22 in 10.0 mi WNW 4.6 mph - N/A   Clear
6:56 AM 68.0 °F - 57.9 °F 70% 30.23 in 10.0 mi WNW 3.5 mph - N/A   Clear
7:56 AM 72.0 °F - 60.1 °F 66% 30.24 in 10.0 mi WNW 4.6 mph - N/A   Clear
8:56 AM 77.0 °F - 57.9 °F 52% 30.26 in 10.0 mi NNE 5.8 mph - N/A   Clear
9:56 AM 80.1 °F 80.7 °F 59.0 °F 48% 30.26 in 10.0 mi NE 4.6 mph - N/A   Clear
10:56 AM 81.0 °F 80.8 °F 55.9 °F 42% 30.27 in 10.0 mi Variable 3.5 mph - N/A   Partly Cloudy
11:56 AM 82.0 °F 82.0 °F 57.9 °F 44% 30.26 in 10.0 mi NNE 5.8 mph - N/A   Partly Cloudy
12:56 PM 82.9 °F 82.6 °F 57.9 °F 42% 30.25 in 10.0 mi WNW 3.5 mph - N/A   Scattered Clouds
1:56 PM 82.9 °F 82.4 °F 57.0 °F 41% 30.24 in 10.0 mi WSW 4.6 mph - N/A   Scattered Clouds
2:56 PM 84.9 °F - 52.0 °F 32% 30.24 in 10.0 mi Calm Calm - N/A   Scattered Clouds
3:56 PM 84.0 °F 83.0 °F 55.9 °F 38% 30.24 in 10.0 mi NW 3.5 mph - N/A   Partly Cloudy
4:56 PM 84.0 °F 83.8 °F 59.0 °F 43% 30.23 in 10.0 mi SE 5.8 mph - N/A   Partly Cloudy
5:56 PM 84.0 °F 84.0 °F 60.1 °F 44% 30.22 in 10.0 mi SE 4.6 mph - N/A   Partly Cloudy
6:56 PM 81.0 °F 81.6 °F 60.1 °F 49% 30.22 in 10.0 mi South 3.5 mph - N/A   Partly Cloudy
7:56 PM 75.9 °F - 62.1 °F 62% 30.24 in 10.0 mi Calm Calm - N/A   Clear
8:56 PM 73.0 °F - 62.1 °F 68% 30.25 in 10.0 mi Calm Calm - N/A   Clear
9:56 PM 70.0 °F - 63.0 °F 78% 30.26 in 10.0 mi Calm Calm - N/A   Clear
10:56 PM 69.1 °F - 62.1 °F 78% 30.25 in 10.0 mi Calm Calm - N/A   Clear
11:56 PM 69.1 °F - 62.1 °F 78% 30.26 in 10.0 mi Calm Calm - N/A   Clear